Fort Lewis, WA
on Thursday, November 15, 2012

Thursday
Previous Day Next Day
Daily Summary
 ActualAverage (KOLM)Record (KOLM)
Temperature
Mean Temperature °F 43°F  
Max Temperature 43°F 50°F 63°F (2001)
Min Temperature 33°F 37°F -1°F (1955)
Degree Days
Heating Degree Days 27 22  
Month to date heating degree days 300  
Since 1 July heating degree days 1094  
Cooling Degree Days 0 0  
Month to date cooling degree days 0  
Year to date cooling degree days 106  
Moisture
Dew Point 38°F   
Average Humidity 98    
Maximum Humidity 100    
Minimum Humidity 90    
Precipitation
Precipitation 0.01 in 0.30 in 1.35 in (1973)
Month to date precipitation 4.07  
Year to date precipitation 37.98  
Wind
Wind Speed 3 mph   
Max Wind Speed 9 mph   
Max Gust Speed mph   
Visibility 4 miles   
Events Fog   

Key: T is trace of precipitation, MM is missing value
Source: NWS Daily Summary
Time(PST)TemperatureDew PointHumidity Pressure Visibility Wind DirectionWind SpeedGust SpeedPrecipitationEvents Conditions
12:03 AM 33.8°F 32.0°F 93% 30.26 in 0.5 miles SE 3.5 mph - N/A Fog Fog
12:05 AM 33.8°F 33.8°F 100% 30.26 in 0.2 miles SE 3.5 mph - N/A Fog Fog
12:11 AM 33.8°F 33.8°F 100% 30.25 in 0.2 miles SE 3.5 mph - N/A Fog Fog
12:21 AM 33.8°F 33.8°F 100% 30.25 in 0.2 miles SE 4.6 mph - N/A Fog Fog
12:25 AM 33.8°F 33.8°F 100% 30.25 in 0.2 miles SE 3.5 mph - N/A Fog Fog
12:39 AM 35.6°F 35.6°F 100% 30.24 in 0.2 miles SE 3.5 mph - N/A Fog Fog
12:44 AM 35.6°F 35.6°F 100% 30.24 in 0.5 miles SE 4.6 mph - N/A Fog Fog
12:58 AM 35.6°F 35.2°F 99% 30.24 in 0.2 miles East 1.2 mph - 0.00 in Fog Fog
1:43 AM 35.6°F 35.6°F 100% 30.23 in 0.5 miles Calm Calm - N/A Fog Fog
1:48 AM 35.6°F 35.6°F 100% 30.23 in 0.5 miles Calm Calm - N/A Fog Fog
1:58 AM 35.8°F 35.4°F 99% 30.24 in 0.2 miles Calm Calm - N/A Fog Fog
2:10 AM 35.6°F 35.6°F 100% 30.22 in 0.2 miles Calm Calm - N/A Fog Light Drizzle
2:20 AM 35.6°F 35.6°F 100% 30.22 in 0.2 miles WNW 2.3 mph - N/A Fog Light Drizzle
2:26 AM 35.6°F 35.6°F 100% 30.22 in 0.5 miles Calm Calm - N/A Fog Fog
2:58 AM 36.5°F 36.3°F 99% 30.23 in 0.5 miles Calm Calm - 0.00 in Fog Fog
3:20 AM 37.4°F 37.4°F 100% 30.20 in 0.2 miles Variable 2.3 mph - N/A Fog Fog
3:29 AM 37.4°F 37.4°F 100% 30.20 in 0.2 miles NE 2.3 mph - N/A Fog Fog
3:33 AM 37.4°F 37.4°F 100% 30.20 in 0.2 miles NE 2.3 mph - N/A Fog Fog
3:43 AM 37.4°F 37.4°F 100% 30.20 in 0.2 miles NE 2.3 mph - N/A Fog Light Drizzle
3:58 AM 36.9°F 36.5°F 99% 30.21 in 1.0 miles East 2.3 mph - 0.00 in   Overcast
4:08 AM 37.4°F 37.4°F 100% 30.19 in 3.0 miles ENE 1.2 mph - N/A   Overcast
4:28 AM 37.4°F 37.4°F 100% 30.19 in 1.2 miles SE 2.3 mph - N/A   Overcast
4:43 AM 37.4°F 37.4°F 100% 30.18 in 1.2 miles SSE 2.3 mph - N/A   Overcast
4:58 AM 37.0°F 36.7°F 99% 30.20 in 1.5 miles SE 3.5 mph - N/A   Overcast
5:18 AM 37.4°F 37.4°F 100% 30.17 in 2.0 miles ESE 2.3 mph - N/A   Overcast
5:58 AM 37.6°F 37.4°F 99% 30.18 in 2.5 miles SE 2.3 mph - N/A   Overcast
6:13 AM 37.4°F 37.4°F 100% 30.15 in 3.0 miles SE 4.6 mph - N/A   Overcast
6:28 AM 37.4°F 37.4°F 100% 30.15 in 8.0 miles SE 3.5 mph - N/A   Overcast
6:58 AM 38.8°F 38.5°F 99% 30.16 in 10.0 miles ENE 2.3 mph - N/A   Overcast
7:08 AM 39.2°F 39.2°F 100% 30.14 in 9.0 miles NE 2.3 mph - N/A   Overcast
7:18 AM 39.2°F 39.2°F 100% 30.14 in 8.0 miles NNE 3.5 mph - N/A   Overcast
7:28 AM 41.0°F 39.2°F 93% 30.14 in 8.0 miles NE 3.5 mph - N/A   Overcast
7:58 AM 40.8°F 40.6°F 99% 30.15 in 7.0 miles NNE 3.5 mph - N/A   Overcast
8:28 AM 41.0°F 41.0°F 100% 30.12 in 5.0 miles NE 3.5 mph - N/A   Overcast
8:43 AM 41.0°F 41.0°F 100% 30.12 in 6.0 miles NNE 3.5 mph - N/A   Overcast
8:58 AM 41.0°F 40.8°F 99% 30.14 in 10.0 miles North 8.1 mph - N/A   Overcast
9:13 AM 41.0°F 41.0°F 100% 30.11 in 10.0 miles North 6.9 mph - N/A   Overcast
9:28 AM 41.0°F 41.0°F 100% 30.11 in 10.0 miles NNE 9.2 mph - N/A   Overcast
9:33 AM 41.0°F 41.0°F 100% 30.10 in 10.0 miles Variable 5.8 mph - N/A   Overcast
9:44 AM 41.0°F 41.0°F 100% 30.10 in 10.0 miles NNE 4.6 mph - N/A   Overcast
9:58 AM 41.4°F 41.2°F 99% 30.12 in 10.0 miles NNE 4.6 mph - N/A   Overcast
10:38 AM 42.8°F 41.0°F 93% 30.09 in 10.0 miles NE 3.5 mph - N/A   Overcast
10:58 AM 42.4°F 41.0°F 95% 30.10 in 10.0 miles NNW 4.6 mph - N/A   Overcast
11:58 AM 43.0°F 40.5°F 91% 30.06 in 10.0 miles East 5.8 mph - N/A   Overcast
12:23 PM 42.8°F 41.0°F 93% 30.04 in 10.0 miles East 3.5 mph - N/A   Overcast
12:58 PM 43.2°F 40.8°F 91% 30.05 in 10.0 miles SE 5.8 mph - N/A   Overcast
1:55 PM 42.8°F 41.0°F 93% 30.04 in 10.0 miles SE 5.8 mph - N/A   Overcast
1:58 PM 43.0°F 40.8°F 92% 30.04 in 10.0 miles SE 5.8 mph - N/A   Overcast
2:55 PM 42.8°F 41.0°F 93% 30.02 in 10.0 miles ESE 3.5 mph - N/A   Overcast
2:58 PM 43.5°F 40.8°F 90% 30.02 in 10.0 miles SE 4.6 mph - N/A   Overcast
3:28 PM 42.8°F 41.0°F 93% 30.00 in 10.0 miles East 3.5 mph - N/A   Overcast
3:58 PM 43.0°F 40.5°F 91% 30.02 in 10.0 miles ESE 4.6 mph - 0.01 in   Overcast
4:03 PM 42.8°F 41.0°F 93% 29.99 in 10.0 miles ESE 4.6 mph - N/A   Overcast
4:11 PM 42.8°F 41.0°F 93% 29.99 in 10.0 miles Variable 1.2 mph - N/A   Overcast
4:46 PM 41.0°F 41.0°F 100% 29.99 in 10.0 miles SE 3.5 mph - N/A   Overcast
4:58 PM 41.4°F 40.1°F 95% 30.01 in 10.0 miles SE 4.6 mph - N/A   Overcast
5:03 PM 41.0°F 39.2°F 93% 29.99 in 10.0 miles SE 3.5 mph - N/A   Overcast
5:08 PM 41.0°F 39.2°F 93% 29.99 in 9.0 miles SE 4.6 mph - N/A   Overcast
5:18 PM 41.0°F 39.2°F 93% 29.98 in 8.0 miles SE 2.3 mph - N/A   Overcast
5:58 PM 40.6°F 39.9°F 97% 30.01 in 5.0 miles SE 3.5 mph - N/A   Overcast
6:03 PM 41.0°F 39.2°F 93% 29.99 in 5.0 miles SE 3.5 mph - N/A   Overcast
6:53 PM 41.0°F 39.2°F 93% 29.98 in 5.0 miles NE 1.2 mph - N/A   Overcast
6:58 PM 40.5°F 39.9°F 98% 30.00 in 4.0 miles ENE 2.3 mph - N/A   Overcast
7:33 PM 41.0°F 39.2°F 93% 29.97 in 2.0 miles SE 4.6 mph - N/A   Overcast
7:38 PM 39.2°F 39.2°F 100% 29.97 in 1.5 miles East 3.5 mph - N/A   Overcast
7:43 PM 39.2°F 39.2°F 100% 29.97 in 1.8 miles East 3.5 mph - N/A   Overcast
7:48 PM 39.2°F 39.2°F 100% 29.97 in 2.0 miles East 2.3 mph - N/A   Overcast
7:58 PM 39.2°F 39.2°F 100% 29.98 in 1.5 miles SE 4.6 mph - N/A   Overcast
8:03 PM 39.2°F 39.2°F 100% 29.96 in 1.2 miles East 3.5 mph - N/A   Overcast
8:08 PM 39.2°F 39.2°F 100% 29.96 in 1.0 miles SE 4.6 mph - N/A   Overcast
8:18 PM 39.2°F 39.2°F 100% 29.96 in 0.8 miles SSE 5.8 mph - N/A   Overcast
8:28 PM 39.2°F 39.2°F 100% 29.96 in 0.5 miles SSE 5.8 mph - N/A Fog Fog
8:38 PM 39.2°F 39.2°F 100% 29.96 in 0.5 miles SSE 5.8 mph - N/A Fog Fog
8:58 PM 38.8°F 38.7°F 99% 29.98 in 0.5 miles SSE 4.6 mph - N/A Fog Fog
9:58 PM 38.5°F 38.3°F 99% 29.98 in 0.5 miles SE 4.6 mph - N/A Fog Fog
10:08 PM 39.2°F 37.4°F 93% 29.95 in 0.5 miles SE 4.6 mph - N/A Fog Fog
10:18 PM 39.2°F 37.4°F 93% 29.95 in 0.5 miles SE 5.8 mph - N/A Fog Fog
10:28 PM 37.4°F 37.4°F 100% 29.95 in 0.5 miles SE 5.8 mph - N/A Fog Fog
10:38 PM 37.4°F 37.4°F 100% 29.95 in 0.5 miles SE 5.8 mph - N/A Fog Fog
10:58 PM 37.8°F 37.6°F 99% 29.97 in 0.2 miles SE 5.8 mph - N/A Fog Fog
11:48 PM 37.4°F 37.4°F 100% 29.94 in 0.5 miles SE 3.5 mph - N/A Fog Fog
11:58 PM 37.6°F 37.2°F 99% 29.97 in 0.5 miles SSE 4.6 mph - N/A Fog Fog
Moon Phase
Nov. 15 Nov. 20 Nov. 28 Dec. 06 Dec. 13
Sunrise:07:14 AM (PST) Moon Rise:09:20 AM (PST)11/15
Sunset:04:34 PM (PST) Moon Set:06:27 PM (PST)11/15

Copyright © 2014 The Weather Underground, Inc.